Change the Weather History Date:

Friday, January 3, 2014

  Actual Average Record
Temperature  
Mean Temperature 14 °F -  
Max Temperature 19 °F 39 °F 62 °F (1997)
Min Temperature 10 °F 26 °F 8 °F (2001)
Degree Days  
Heating Degree Days 50    
Moisture  
Dew Point 2 °F    
Average Humidity 64    
Maximum Humidity 79    
Minimum Humidity 41    
Precipitation  
Precipitation 0.25 in - - ()
Snow  
Snow 0.00 in - - ()
Snow Depth 5.00 in    
Sea Level Pressure  
Sea Level Pressure 30.01 in    
Wind  
Wind Speed 12 mph (NNW)    
Max Wind Speed 21 mph    
Max Gust Speed 32 mph    
Visibility 5 miles    
Events Snow    
Averages and records for this station are not official NWS values.
T = Trace of Precipitation, MM = Missing Value Source: NWS Daily Summary

Daily Weather History Graph

Daily Weather History Graph

Search for Another Location

Airport or City:

Trip Planner

Search our weather history database for the weather conditions in past years. The results will help you decide how hot, cold, wet, or windy it might be!

Date:

Astronomy

Jan. 03, 2014 Rise Set
Actual Time 7:20 AM EST 4:40 PM EST
Civil Twilight 6:50 AM EST 5:11 PM EST
Nautical Twilight 6:15 AM EST 5:46 PM EST
Astronomical Twilight 5:42 AM EST 6:19 PM EST
Moon 8:43 AM EST (1/3) 7:48 PM EST (1/3)
Length of Visible Light 10h 21m
Length of Day
9h 20m
Waxing Crescent, 8% of the Moon is Illuminated
Jan 3
Waxing Crescent
Jan 7
First Quarter
Jan 15
Full
Jan 24
Last Quarter
Jan 30
New

Hourly Weather History & Observations

Time (EST) Temp. Windchill Dew Point Humidity Pressure Visibility Wind Dir Wind Speed Gust Speed Precip Events Conditions
12:05 AM 14.0 °F -0.8 °F 8.6 °F 79% 29.71 in 0.5 mi North 13.8 mph 19.6 mph 0.01 in Snow Snow
12:51 AM 12.9 °F -2.8 °F 7.0 °F 77% 29.68 in 0.8 mi North 15.0 mph 23.0 mph 0.06 in Snow Light Snow
1:51 AM 12.9 °F -2.8 °F 6.1 °F 74% 29.68 in 0.5 mi North 15.0 mph 27.6 mph 0.03 in Snow Snow
2:51 AM 12.0 °F -4.5 °F 6.1 °F 77% 29.70 in 0.5 mi North 16.1 mph 24.2 mph 0.03 in Snow Snow
3:24 AM 12.2 °F -4.3 °F 6.8 °F 79% 29.71 in 0.1 mi North 16.1 mph 29.9 mph 0.03 in Snow Snow
3:51 AM 12.0 °F -5.1 °F 6.1 °F 77% 29.72 in 0.5 mi North 17.3 mph 27.6 mph 0.03 in Snow Snow
4:51 AM 12.9 °F -0.2 °F 7.0 °F 77% 29.76 in 0.5 mi North 10.4 mph - 0.03 in Snow Snow
5:28 AM 12.2 °F -1.0 °F 6.8 °F 79% 29.78 in 1.0 mi NNW 10.4 mph - 0.01 in Snow Light Snow
5:51 AM 12.0 °F -0.4 °F 6.1 °F 77% 29.81 in 1.5 mi NNW 9.2 mph - 0.01 in Snow Light Snow
6:02 AM 12.2 °F -1.8 °F 5.0 °F 73% 29.81 in 2.5 mi NNW 11.5 mph - 0.00 in Snow Light Snow
6:10 AM 12.2 °F -0.2 °F 5.0 °F 73% 29.82 in 3.0 mi NNW 9.2 mph - 0.00 in Snow Light Snow
6:16 AM 12.2 °F -0.2 °F 5.0 °F 73% 29.82 in 2.0 mi NNW 9.2 mph - 0.00 in Snow Light Snow
6:19 AM 12.2 °F -0.2 °F 5.0 °F 73% 29.83 in 1.0 mi NNW 9.2 mph - 0.00 in Snow Light Snow
6:51 AM 12.0 °F -1.3 °F 6.1 °F 77% 29.86 in 1.0 mi NNW 10.4 mph - 0.01 in Snow Light Snow
7:13 AM 12.2 °F -0.2 °F 6.8 °F 79% 29.88 in 0.5 mi North 9.2 mph - 0.01 in Snow Light Snow
7:23 AM 12.2 °F -0.2 °F 6.8 °F 79% 29.89 in 0.5 mi North 9.2 mph - 0.01 in Snow Light Snow
7:51 AM 10.9 °F -1.8 °F 3.9 °F 73% 29.92 in 0.5 mi North 9.2 mph - 0.01 in Snow Light Snow
7:58 AM 10.4 °F -2.4 °F 3.2 °F 73% 29.93 in 1.0 mi North 9.2 mph - 0.00 in Snow Light Snow
8:19 AM 12.2 °F 0.7 °F 5.0 °F 73% 29.95 in 3.0 mi North 8.1 mph - 0.00 in Snow Light Snow
8:26 AM 12.2 °F 2.9 °F 5.0 °F 73% 29.96 in 2.5 mi NNW 5.8 mph - 0.00 in Snow Light Snow
8:49 AM 12.2 °F -1.0 °F 3.2 °F 67% 29.97 in 3.0 mi NNW 10.4 mph 18.4 mph 0.00 in Snow Light Snow
8:51 AM 12.0 °F -2.0 °F 3.0 °F 67% 29.98 in 3.0 mi NNW 11.5 mph - 0.00 in Snow Light Snow
9:51 AM 12.9 °F -0.2 °F 3.9 °F 67% 30.02 in 4.0 mi NNW 10.4 mph - 0.00 in Snow Blowing Snow
10:51 AM 18.0 °F 3.6 °F 5.0 °F 57% 30.04 in 10.0 mi NNW 15.0 mph 24.2 mph 0.04 in   Overcast
11:51 AM 19.0 °F 5.6 °F 3.0 °F 50% 30.07 in 10.0 mi NNW 13.8 mph 18.4 mph N/A   Clear
12:51 PM 18.0 °F 1.3 °F 1.9 °F 50% 30.11 in 10.0 mi NW 20.7 mph 25.3 mph N/A Snow Blowing Snow
1:51 PM 18.0 °F 2.6 °F -0.0 °F 45% 30.16 in 10.0 mi NW 17.3 mph 26.5 mph N/A Snow Blowing Snow
2:51 PM 17.1 °F 0.6 °F -0.9 °F 45% 30.20 in 10.0 mi NNW 19.6 mph 32.2 mph N/A   Clear
3:51 PM 16.0 °F -0.4 °F -2.0 °F 45% 30.24 in 10.0 mi WNW 18.4 mph 24.2 mph N/A   Clear
4:51 PM 15.1 °F -0.6 °F -4.0 °F 43% 30.30 in 10.0 mi NW 16.1 mph 21.9 mph N/A   Clear
5:51 PM 14.0 °F 2.0 °F -5.1 °F 43% 30.36 in 10.0 mi NNW 9.2 mph - N/A   Clear
6:51 PM 12.9 °F -0.2 °F -7.1 °F 41% 30.41 in 10.0 mi NW 10.4 mph 19.6 mph N/A   Clear
7:51 PM 12.0 °F -0.4 °F -7.1 °F 42% 30.45 in 10.0 mi NW 9.2 mph - N/A   Clear
8:51 PM 10.9 °F 1.4 °F -7.1 °F 44% 30.47 in 10.0 mi NNW 5.8 mph - N/A   Clear
9:51 PM 10.9 °F -0.8 °F -7.1 °F 44% 30.48 in 10.0 mi NW 8.1 mph - N/A   Clear
10:51 PM 10.0 °F 1.8 °F -6.0 °F 48% 30.48 in 10.0 mi North 4.6 mph - N/A   Clear
11:51 PM 10.0 °F - -5.1 °F 51% 30.48 in 10.0 mi Calm Calm - N/A   Clear